Location: Newark
(51.0500°N, 12.4500°E)
Time: 14:05:50
(UTC+00:00)

Vanguard 1 - Pass Details

Date: 19 February 2020
Orbit: 649 x 3833 km, 34.2° (Epoch: 09 April)

Event Time Altitude Azimuth Distance (km) Brightness Sun altitude
Rises 09:38:54 0° 243° (WSW) 7,479 14.6 23.5°
Reaches altitude 10° 09:45:04 10° 236° (WSW) 6,047 14.2 23.9°
Maximum altitude 09:59:25 35° 181° (S) 3,125 14.2 24.9°
Drops below altitude 10° 10:08:07 10° 120° (ESE) 3,668 13.9 25.4°
Sets 10:10:51 0° 110° (ESE) 4,313 13.9 25.6°
